Simultaneous Nadir Overpasses (SNOs) Predictions

Prediction of SNOs between GOES-15 and METOP-C Satellite Orbit:

Table of predicted SNOs for the next 14.0 days since TLE Epoch: 8/7/2020
Index Date Time (GOES-15) GOES-15 Lat,Lon METOP-C Lat,Lon Distance(km) Time Diff (sec)
1 08/08/2020 05:57:35 0.02,-128.26 0.31,-126.91 153.80 80
2 08/09/2020 18:16:26 -0.02,-128.22 0.70,-131.47 370.18 80
3 08/10/2020 17:58:27 -0.02,-128.19 -0.44,-126.48 196.34 80
4 08/12/2020 06:17:26 0.02,-128.15 -0.61,-131.07 331.46 80
5 08/13/2020 05:54:05 0.02,-128.12 0.47,-126.06 234.20 80
6 08/14/2020 18:12:57 -0.02,-128.07 0.53,-130.63 291.35 80
7 08/15/2020 17:54:56 -0.02,-128.03 -0.55,-125.62 274.25 80
8 08/17/2020 06:13:55 0.02,-127.98 -0.50,-130.21 254.63 80
9 08/18/2020 05:50:36 0.03,-127.94 0.64,-125.22 310.12 80
10 08/19/2020 18:09:26 -0.03,-127.87 0.41,-129.77 216.88 80
11 08/20/2020 17:51:27 -0.04,-127.83 -0.73,-124.78 348.09 80
